Flag for U.S.A. Weather past 2 weeks in Irving, Texas, U.S.A.

Now
87 °F

Cloudy.


Feels Like: 92 °F
Forecast: 79 / 98 °F
Wind: 17 mph from East

Location: Dallas / Fort Worth International Airport

Current Time: Jul 23, 2014 at 9:47:14 PM

Latest Report: Jul 23, 2014 at 8:53 PM


Visibility: 10 mi

Pressure: 30.01 "Hg

Humidity: 57%

Dew point: 70 °F

Location of IrvingLocation

Historic Weather in Irving — Graph

°F

Irving temperature yesterday

Maximum temperature yesterday: 94 °F (at 6:53 PM)
Minimum temperature yesterday: 77 °F (at 6:53 AM)
Average temperature yesterday: 84 °F

Past Weeks' High & Low Weather Summary

 TemperatureHumidityPressure
High100 °F (Jul 13, 4:53 PM)94% (Jul 18, 5:53 AM)30.14 "Hg (Jul 18, 5:53 AM)
Low65 °F (Jul 18, 5:53 AM)24% (Jul 15, 5:53 PM)29.84 "Hg (Jul 17, 5:53 AM)
Average83 °F59%29.98 "Hg
* Reported Jul 8 7:53 PM — Jul 23 7:53 PM, Irving, Weather by CustomWeather, © 2014

Note: Actual official high and low records may vary slightly from our data, if they occured in-between our weather recording intervals... More about our weather records

Advertising

Irving weather history for previous 24 hours

 ConditionsComfort  
Time TempWeatherWind HumidityBarometerVisibility
7:53 PM
Jul 23
93 °FOvercast.9 mph44%29.99 "Hg10 mi
6:53 PM95 °FOvercast.6 mph41%29.97 "Hg10 mi
5:53 PM94 °FOvercast.No wind43%29.98 "Hg10 mi
4:53 PM96 °FBroken clouds.3 mph40%29.98 "Hg10 mi
3:53 PM97 °FScattered clouds.2 mph39%30.03 "Hg10 mi
2:53 PM95 °FScattered clouds.10 mph41%30.03 "Hg10 mi
1:53 PM93 °FPassing clouds.7 mph42%30.05 "Hg10 mi
12:53 PM92 °FPassing clouds.8 mph44%30.06 "Hg10 mi
11:53 AM91 °FScattered clouds.7 mph49%30.07 "Hg10 mi
10:53 AM89 °FScattered clouds.6 mph50%30.08 "Hg10 mi
9:53 AM86 °FPassing clouds.No wind55%30.08 "Hg10 mi
8:53 AM82 °FPassing clouds.No wind67%30.08 "Hg8 mi
7:53 AM79 °FPassing clouds.No wind77%30.07 "Hg7 mi
4:53 AM78 °FClear.No wind74%30.05 "Hg9 mi
3:53 AM78 °FClear.5 mph74%30.05 "Hg10 mi
2:53 AM78 °FClear.5 mph74%30.04 "Hg10 mi
12:53 AM82 °FClear.6 mph67%30.03 "Hg10 mi
11:53 PM
Jul 22
84 °FClear.6 mph63%30.03 "Hg10 mi
10:53 PM86 °FClear.8 mph57%30.03 "Hg10 mi
9:53 PM88 °FClear.8 mph52%30.01 "Hg10 mi
Weather by CustomWeather, © 2014

See weather overviewHow to use our weather pages